Location: Unspecified
(0.0000°N, 0.0000°E)
Time: 22:44:00
(UTC+00:00)

deb r/b Ablestar - Pass Details

Date: 19 September 2024
Orbit: 702 x 890 km, 66.9° (Epoch: 02 October)

Event Time Altitude Azimuth Distance (km) Brightness Sun altitude
Rises 03:48:12 0° 15° (NNE) 3,070 ? -31.4°
Reaches altitude 10° 03:51:44 10° 41° (NE) 2,160 ? -30.5°
Maximum altitude 03:54:05 13° 70° (ENE) 1,944 ? -29.9°
Drops below altitude 10° 03:56:27 10° 99° (E) 2,185 ? -29.3°
Sets 04:00:02 0° 126° (SE) 3,135 ? -28.4°
